Weather History for Lamoni, IA

Change the Weather History Date:

Tuesday, November 15, 2011

  Actual Average Record
Temperature  
Mean Temperature 47 °F 40 °F  
Max Temperature 60 °F 49 °F 72 °F (2001)
Min Temperature 33 °F 31 °F 15 °F (1972)
Degree Days  
Heating Degree Days 18 25  
Month to date heating degree days 283 324  
Since 1 July heating degree days 759 808  
Cooling Degree Days 0 0  
Month to date cooling degree days 0 0  
Year to date cooling degree days 1144 946  
Moisture  
Dew Point 28 °F    
Average Humidity 59    
Maximum Humidity 82    
Minimum Humidity 36    
Precipitation  
Precipitation 0.00 in 0.07 in 0.88 in (1962)
Month to date precipitation 3.37 1.39  
Year to date precipitation 32.49  
Sea Level Pressure  
Sea Level Pressure 29.82 in    
Wind  
Wind Speed 9 mph (WNW)    
Max Wind Speed 18 mph    
Max Gust Speed 23 mph    
Visibility 10 miles    
Events      
T = Trace of Precipitation, MM = Missing Value Source: NWS Daily Summary

Daily Weather History Graph

Daily Weather History Graph

Search for Another Location

Airport:

Trip Planner

Search our weather history database for the weather conditions in past years. The results will help you decide how hot, cold, wet, or windy it might be!

Date:

Astronomy

Nov. 15, 2011 Rise Set
Actual Time 7:01 AM CST 4:57 PM CST
Civil Twilight 6:32 AM CST 5:27 PM CST
Nautical Twilight 5:59 AM CST 6:00 PM CST
Astronomical Twilight 5:27 AM CST 6:32 PM CST
Moon 9:07 PM CST (11/15) 11:02 AM CST (11/15)
Length of Visible Light 10h 54m
Length of Day
9h 56m
Waning Gibbous, 79% of the Moon is Illuminated
Nov 15
Waning Gibbous
Nov 18
Last Quarter
Nov 25
New
Dec 2
First Quarter
Dec 10
Full

Hourly Weather History & Observations

Time (CST) Temp. Windchill Dew Point Humidity Pressure Visibility Wind Dir Wind Speed Gust Speed Precip Events Conditions
12:53 AM 42.1 °F 36.1 °F 30.0 °F 62% 29.69 in 10.0 mi SE 10.4 mph - N/A   Clear
1:53 AM 37.9 °F 32.1 °F 30.0 °F 73% 29.69 in 10.0 mi SSE 8.1 mph - N/A   Clear
3:53 AM 37.0 °F 29.8 °F 28.9 °F 73% 29.68 in 10.0 mi South 10.4 mph - N/A   Clear
4:53 AM 33.1 °F 24.9 °F 28.0 °F 82% 29.71 in 10.0 mi SSW 10.4 mph - N/A   Clear
5:53 AM 33.1 °F 25.5 °F 27.0 °F 78% 29.70 in 10.0 mi South 9.2 mph - N/A   Clear
7:53 AM 35.1 °F 28.6 °F 28.0 °F 76% 29.73 in 10.0 mi South 8.1 mph - N/A   Clear
8:53 AM 39.0 °F 34.0 °F 30.9 °F 73% 29.73 in 10.0 mi South 6.9 mph - N/A   Clear
9:53 AM 46.0 °F 42.5 °F 35.1 °F 66% 29.75 in 10.0 mi SSW 6.9 mph - N/A   Clear
10:53 AM 52.0 °F - 33.1 °F 49% 29.77 in 10.0 mi WSW 9.2 mph - N/A   Clear
11:53 AM 55.0 °F - 33.1 °F 43% 29.75 in 10.0 mi WNW 9.2 mph - N/A   Clear
12:53 PM 57.0 °F - 33.1 °F 40% 29.74 in 10.0 mi NNW 8.1 mph - N/A   Clear
1:53 PM 60.1 °F - 33.1 °F 36% 29.74 in 10.0 mi Variable 5.8 mph - N/A   Clear
2:53 PM 59.0 °F - 33.1 °F 38% 29.76 in 10.0 mi North 8.1 mph - N/A   Clear
4:53 PM 51.1 °F - 27.0 °F 39% 29.84 in 10.0 mi NNW 10.4 mph - N/A   Clear
5:53 PM 46.9 °F - 25.0 °F 42% 29.89 in 10.0 mi NNW 9.2 mph - N/A   Clear
6:53 PM 46.0 °F 40.6 °F 27.0 °F 47% 29.94 in 10.0 mi NNW 11.5 mph - N/A   Clear
7:53 PM 44.1 °F 38.1 °F 26.1 °F 49% 29.97 in 10.0 mi NNW 11.5 mph - N/A   Clear
8:53 PM 42.1 °F 34.5 °F 23.0 °F 47% 29.99 in 10.0 mi NNW 15.0 mph - N/A   Clear
9:53 PM 39.0 °F 31.4 °F 21.9 °F 50% 30.02 in 10.0 mi North 12.7 mph - N/A   Clear
10:53 PM 37.0 °F 29.8 °F 21.9 °F 54% 30.03 in 10.0 mi North 10.4 mph - N/A   Clear
11:53 PM 33.1 °F 26.1 °F 19.9 °F 59% 30.05 in 10.0 mi North 8.1 mph - N/A   Clear